MUOS-2                  
1 39206U 13036A   19265.53855407 -.00000133  00000-0  00000+0 0  9990
2 39206   2.8024 348.7813 0051095 358.5947 107.6272  1.00273273 22647
ATLAS 5 CENTAUR R/B     
1 39207U 13036B   19264.52062733 -.00000232  00000-0  00000+0 0  9991
2 39207  17.8589 260.9407 6158127 235.8800  49.9621  2.09947006 47341